This demonstration page uses our WeatherBlox Daily Observations layout. Learn more.

Left ArrowRight Arrow

39.12711, -84.51439

Hourly Observations for January 18, 2018

Temp ( °F °C ) Dew Point ( °F °C ) Humidity (%) Winds ( mph kmh ) Pressure ( in mb ) Visibility ( mi km ) Precip ( " mm )
12:53 am 00:53 Clear 14 -10 9 -12.8 80 80 SSW 8 13 30.48 1032 10 16 N/A
1:53 am 01:53 Clear 13 -10.6 8 -13.3 81 81 SSW 7 11 30.47 1032 9 14 N/A
2:53 am 02:53 Clear 10 -12.2 6 -14.4 84 84 SSW 8 13 30.47 1032 9 14 N/A
3:53 am 03:53 Clear 10 -12.2 6 -14.4 84 84 S 8 13 30.46 1031 9 14 N/A
4:53 am 04:53 Clear 10 -12.2 6 -14.4 84 84 S 10 17 30.45 1031 9 14 N/A
5:53 am 05:53 Clear 9 -12.8 6 -14.4 88 88 SSW 9 15 30.45 1031 9 14 N/A
6:53 am 06:53 Clear 10 -12.2 6 -14.4 84 84 S 12 19 30.44 1031 9 14 N/A
7:53 am 07:53 Clear 11 -11.7 6 -14.4 81 81 S 8 13 30.44 1031 10 16 N/A
8:53 am 08:53 Sunny 12 -11.1 7 -13.9 80 80 SSW 9 15 30.43 1031 9 14 N/A
9:53 am 09:53 Sunny 17 -8.3 9 -12.8 70 70 SW 9 15 30.43 1030 10 16 N/A
10:53 am 10:53 Sunny 20 -6.7 9 -12.8 62 62 SSW 10 17 30.42 1030 10 16 N/A
11:53 am 11:53 Sunny 22 -5.6 11 -11.7 63 63 SSW 14 22 30.39 1029 10 16 N/A
12:53 pm 12:53 Sunny 25 -3.9 12 -11.1 58 58 SSW 13 20 30.35 1028 10 16 N/A
1:53 pm 13:53 Sunny 27 -2.8 15 -9.4 61 61 S 15 24 30.31 1026 10 16 N/A
2:53 pm 14:53 Sunny 28 -2.2 16 -8.9 60 60 S 14 22 30.29 1026 10 16 N/A
3:53 pm 15:53 Sunny 30 -1.1 15 -9.4 54 54 S 16 26 30.28 1025 10 16 N/A
4:53 pm 16:53 Sunny 30 -1.1 15 -9.4 54 54 SSW 13 20 30.29 1026 10 16 N/A
5:53 pm 17:53 Clear 28 -2.2 15 -9.4 58 58 SSW 13 20 30.29 1026 10 16 N/A
6:53 pm 18:53 Clear 28 -2.2 14 -10 56 56 SSW 14 22 30.29 1026 10 16 N/A
7:53 pm 19:53 Clear 26 -3.3 13 -10.6 57 57 SSW 9 15 30.30 1026 10 16 N/A
8:53 pm 20:53 Clear 25 -3.9 13 -10.6 60 60 SSW 12 19 30.28 1025 10 16 N/A
9:53 pm 21:53 Clear 24 -4.4 13 -10.6 62 62 SSW 12 19 30.28 1025 10 16 N/A
10:53 pm 22:53 Clear 22 -5.6 13 -10.6 68 68 SSW 10 17 30.28 1025 10 16 N/A
11:53 pm 23:53 Clear 23 -5 13 -10.6 65 65 S 12 19 30.26 1025 10 16 N/A

Powered by AerisWeather